Regional Weather Roundup
Issued by NWS Sioux Falls, SD

Home | Current Version | Previous Version | Graphics & Text | Print | Product List | Glossary On
Versions: 1 2 3 4 5 6 7 8 9 10 11 12 13 14 15 16 17 18 19 20 21 22 23 24 25 26 27 28 29 30 31 32 33 34 35 36 37 38 39 40 41 42 43 44 45 46 47 48 49 50
000
ASUS43 KFSD 052102
RWRFSD

WEATHER ROUNDUP FOR SE SOUTH DAKOTA/SW MINNESOTA/NW IOWA
NATIONAL WEATHER SERVICE SIOUX FALLS SD
400 PM CDT THU MAY 05 2016

NOTE: "FAIR" INDICATES FEW OR NO CLOUDS BELOW 12,000 FEET WITH NO
SIGNIFICANT WEATHER AND OR OBSTRUCTIONS TO VISIBILITY.


SDZ038>040-050-052>070-052200-
SOUTHEAST SOUTH DAKOTA

CITY           SKY/WX    TMP DP  RH WIND       PRES   REMARKS
BROOKINGS      SUNNY     80  42  25 SW14G21   29.95F
CHAMBERLAIN    NOT AVBL
HURON          SUNNY     83  42  23 S16       29.91F
MADISON        FAIR      77  41  27 S14       29.97F
MITCHELL       SUNNY     82  47  29 S12       29.94F
SIOUX FALLS    MOSUNNY   75  49  39 S10       29.98F
WINNER         LGT RAIN  86  48  26 S13       29.91F
YANKTON        SUNNY     81  43  26 SW9       29.96F
$$

MNZ071-072-080-081-089-090-097-098-052200-
SOUTHWEST MINNESOTA

CITY           SKY/WX    TMP DP  RH WIND       PRES   REMARKS
FAIRMONT       SUNNY     73  30  20 SW9       29.99F
JACKSON        SUNNY     77  30  18 SW10      30.00F
LUVERNE        SUNNY     77  36  22 S10       29.99F
MARSHALL       SUNNY     81  42  25 SW12      29.95F
MONTEVIDEO     SUNNY     84  43  23 W8        29.93F
PIPESTONE      SUNNY     75  39  27 SW10G16   29.99F
REDWOOD FALLS  SUNNY     81  37  20 SW10G20   29.94F
TRACY          SUNNY     79  42  26 SW12G20   29.97F
WINDOM         SUNNY     77  36  22 SW7       29.99F
WORTHINGTON    SUNNY     76  40  27 SW9G18    30.01F
$$

IAZ001>003-012>014-020>022-031-032-NEZ013-014-SDZ071-052200-
NORTHWEST IOWA

CITY           SKY/WX    TMP DP  RH WIND       PRES   REMARKS
DENISON        SUNNY     73  37  27 VRB7      30.01F
ESTHERVILLE    SUNNY     74  38  27 SW10      30.00F
SIOUX CITY     SUNNY     77  47  34 SE12      30.00F
SPENCER        SUNNY     76  36  23 SW9       30.01F
STORM LAKE     SUNNY     73  32  21 VRB5G13   30.03F
$$

ABBREVIATIONS USED IN REMARKS
   TC - TEMPERATURE IN CELSIUS
  WCI - WIND CHILL INDEX
   HX - HEAT INDEX
  VSB - VISIBILITY





USA.gov is the U.S. government's official web portal to all federal, state and local government web resources and services.